Regional Weather Roundup
Issued by NWS Albany, NY

Home | Current Version | Previous Version | Graphics & Text | Print | Product List | Glossary Off
Versions: 1 2 3 4 5 6 7 8 9 10 11 12 13 14 15 16 17 18 19 20 21 22 23 24 25 26 27 28

000
ASUS41 KALY 290710
RWRALY

NEW YORK STATE HOURLY WEATHER ROUNDUP
NATIONAL WEATHER SERVICE ALBANY NY
300 AM EDT WED MAR 29 2017

NOTE: "FAIR" INDICATES FEW OR NO CLOUDS BELOW 12,000 FEET WITH NO
SIGNIFICANT WEATHER AND/OR NO OBSTRUCTIONS TO VISIBILITY.

NYZ032-033-038>043-046>054-057>066-NYZ062>081-082-084-290800-
EAST


CITY           SKY/WX    TMP DP  RH WIND       PRES   REMARKS
ALBANY         CLOUDY    40  36  86 N8        30.04R WCI  34
GLENS FALLS    CLOUDY    38  34  85 N8        30.04R WCI  32
POUGHKEEPSIE   CLOUDY    41  38  89 N12       29.97R
MONTGOMERY     CLOUDY    44  40  85 NE12      29.97R
WHITE PLAINS   MOCLDY    45  42  89 N12       29.93R
ISLIP          CLOUDY    42  42 100 N8        29.92R
NEW YORK CITY  CLOUDY    48  43  82 N10       29.95R
CENTRAL PARK   CLOUDY    46  43  89 VRB3      29.98R
$$

NYZ005>009-017-018-044>046-055-056-290800-
CENTRAL


CITY           SKY/WX    TMP DP  RH WIND       PRES   REMARKS
FULTON         CLOUDY    38  33  82 NW5       30.14R WCI  34
SYRACUSE       CLOUDY    39  34  82 NW5       30.13R
ROME           CLOUDY    38  35  89 CALM      30.11R
ELMIRA         CLOUDY    40  33  76 NE8       30.12R WCI  34
BINGHAMTON     CLOUDY    35  31  85 N14G24    30.06R WCI  26
MONTICELLO     CLOUDY    39  37  93 NW10G18   30.00R WCI  32
$$

NYZ026>034-041>043-087-290800-
NORTH


CITY           SKY/WX    TMP DP  RH WIND       PRES   REMARKS
WATERTOWN      CLEAR     34  34 100 N3        30.14R
FORT DRUM      NOT AVBL
MASSENA        CLOUDY    38  31  76 CALM      30.14R
SARANAC LAKE   CLOUDY    34  33  96 N3        30.02S
PLATTSBURGH    LGT RAIN  36  34  92 N12       30.08S WCI  28
$$

NYZ001>004-010>016-019>021-085-290800-
WEST


CITY           SKY/WX    TMP DP  RH WIND       PRES   REMARKS
NIAGARA FALLS  CLEAR     36  30  79 CALM      30.18R
BUFFALO        MOCLDY    40  33  76 N10       30.18R WCI  33
DUNKIRK        CLOUDY    39  35  86 CALM      30.19R
JAMESTOWN      CLOUDY    37  34  87 N6        30.13F WCI  33
WELLSVILLE     CLOUDY    39  36  89 VRB6      30.11R WCI  35
ROCHESTER      PTCLDY    36  34  92 NW3       30.17R
PENN YAN       CLOUDY    39  32  76 N3        30.14R
$$

             KEY
       WCI = WIND CHILL INDEX
       VSB = VISIBILITY
       HX  = HEAT INDEX
$$




USA.gov is the U.S. government's official web portal to all federal, state and local government web resources and services.